Time,TemperatureF,DewpointF,PressureIn,WindDirection,WindDirectionDegrees,WindSpeedMPH,WindSpeedGustMPH,Humidity,HourlyPrecipIn,Conditions,Clouds,dailyrainin,SoftwareType,DateUTC
2013-05-16 00:02:00,51.2,50.0,29.70,SSW,207,0.0,-999.0,95,-99.99,,,0.00,weatherlink.com 1.10,2013-05-16 04:02:00,
2013-05-16 00:17:00,50.6,49.0,29.70,SSW,207,0.0,-999.0,95,-99.99,,,0.00,weatherlink.com 1.10,2013-05-16 04:17:00,
2013-05-16 00:32:00,50.4,49.0,29.70,SSW,207,0.0,-999.0,95,-99.99,,,0.00,weatherlink.com 1.10,2013-05-16 04:32:00,
2013-05-16 00:47:00,50.2,49.0,29.70,SSW,207,0.0,-999.0,95,-99.99,,,0.00,weatherlink.com 1.10,2013-05-16 04:47:00,
2013-05-16 01:02:00,49.8,49.0,29.70,SSW,207,0.0,-999.0,95,-99.99,,,0.00,weatherlink.com 1.10,2013-05-16 05:02:00,
2013-05-16 01:17:00,49.2,48.0,29.70,SSW,207,0.0,-999.0,96,-99.99,,,0.00,weatherlink.com 1.10,2013-05-16 05:17:00,
2013-05-16 01:32:00,49.0,48.0,29.70,SSW,207,0.0,-999.0,96,-99.99,,,0.00,weatherlink.com 1.10,2013-05-16 05:32:00,
2013-05-16 01:47:00,48.7,48.0,29.70,SSW,207,0.0,-999.0,96,-99.99,,,0.00,weatherlink.com 1.10,2013-05-16 05:47:00,
2013-05-16 02:02:00,48.3,47.0,29.70,SSW,207,0.0,-999.0,95,-99.99,,,0.00,weatherlink.com 1.10,2013-05-16 06:02:00,
2013-05-16 02:17:00,47.8,47.0,29.70,SSW,207,0.0,-999.0,96,-99.99,,,0.00,weatherlink.com 1.10,2013-05-16 06:17:00,
2013-05-16 02:32:00,47.4,46.0,29.70,SSW,207,0.0,-999.0,95,-99.99,,,0.00,weatherlink.com 1.10,2013-05-16 06:32:00,
2013-05-16 02:47:00,47.2,46.0,29.70,SSW,206,0.0,-999.0,96,-99.99,,,0.00,weatherlink.com 1.10,2013-05-16 06:47:00,
2013-05-16 03:02:00,46.9,46.0,29.70,SSW,205,0.0,-999.0,96,-99.99,,,0.00,weatherlink.com 1.10,2013-05-16 07:02:00,
2013-05-16 03:17:00,46.6,46.0,29.71,SSW,205,0.0,-999.0,96,-99.99,,,0.00,weatherlink.com 1.10,2013-05-16 07:17:00,
2013-05-16 03:32:00,46.5,46.0,29.71,SSW,192,0.0,-999.0,97,-99.99,,,0.00,weatherlink.com 1.10,2013-05-16 07:32:00,
2013-05-16 03:47:00,46.1,45.0,29.70,South,188,0.0,-999.0,96,-99.99,,,0.00,weatherlink.com 1.10,2013-05-16 07:47:00,
2013-05-16 04:02:00,46.0,45.0,29.70,SSW,205,0.0,-999.0,97,-99.99,,,0.00,weatherlink.com 1.10,2013-05-16 08:02:00,
2013-05-16 04:17:00,45.9,45.0,29.70,SSW,205,0.0,-999.0,97,-99.99,,,0.00,weatherlink.com 1.10,2013-05-16 08:17:00,
2013-05-16 04:32:00,45.8,45.0,29.70,SSW,205,0.0,-999.0,97,-99.99,,,0.00,weatherlink.com 1.10,2013-05-16 08:32:00,
2013-05-16 04:47:00,45.3,44.0,29.70,SSW,205,0.0,-999.0,96,-99.99,,,0.00,weatherlink.com 1.10,2013-05-16 08:47:00,
2013-05-16 05:02:00,44.9,44.0,29.70,SSW,194,0.0,-999.0,96,-99.99,,,0.00,weatherlink.com 1.10,2013-05-16 09:02:00,
2013-05-16 05:17:00,44.8,44.0,29.71,South,191,0.0,-999.0,97,-99.99,,,0.00,weatherlink.com 1.10,2013-05-16 09:17:00,
2013-05-16 05:32:00,44.6,44.0,29.71,South,190,0.0,-999.0,97,-99.99,,,0.00,weatherlink.com 1.10,2013-05-16 09:32:00,
2013-05-16 05:47:00,44.2,43.0,29.71,South,190,0.0,-999.0,97,-99.99,,,0.00,weatherlink.com 1.10,2013-05-16 09:47:00,
2013-05-16 06:02:00,44.3,44.0,29.72,South,189,0.0,-999.0,97,-99.99,,,0.00,weatherlink.com 1.10,2013-05-16 10:02:00,
2013-05-16 06:17:00,44.2,43.0,29.72,South,190,0.0,-999.0,97,-99.99,,,0.00,weatherlink.com 1.10,2013-05-16 10:17:00,
2013-05-16 06:32:00,44.3,44.0,29.72,South,190,0.0,-999.0,97,-99.99,,,0.00,weatherlink.com 1.10,2013-05-16 10:32:00,
2013-05-16 06:47:00,44.4,44.0,29.73,South,188,0.0,-999.0,98,-99.99,,,0.00,weatherlink.com 1.10,2013-05-16 10:47:00,
2013-05-16 07:02:00,45.0,45.0,29.74,South,190,0.0,-999.0,98,-99.99,,,0.00,weatherlink.com 1.10,2013-05-16 11:02:00,
2013-05-16 07:17:00,46.1,46.0,29.75,South,191,0.0,-999.0,99,-99.99,,,0.00,weatherlink.com 1.10,2013-05-16 11:17:00,
2013-05-16 07:32:00,48.3,48.0,29.76,SSW,193,0.0,-999.0,100,-99.99,,,0.00,weatherlink.com 1.10,2013-05-16 11:32:00,
2013-05-16 07:47:00,50.3,50.0,29.77,South,186,0.0,-999.0,100,-99.99,,,0.00,weatherlink.com 1.10,2013-05-16 11:47:00,
2013-05-16 08:02:00,52.0,52.0,29.77,South,188,0.0,-999.0,100,-99.99,,,0.00,weatherlink.com 1.10,2013-05-16 12:02:00,
2013-05-16 08:17:00,53.4,53.0,29.77,South,190,0.0,-999.0,100,-99.99,,,0.00,weatherlink.com 1.10,2013-05-16 12:17:00,
2013-05-16 08:32:00,54.5,55.0,29.77,South,191,0.0,-999.0,100,-99.99,,,0.00,weatherlink.com 1.10,2013-05-16 12:32:00,
2013-05-16 08:47:00,56.1,55.0,29.77,SSW,194,0.0,-999.0,96,-99.99,,,0.00,weatherlink.com 1.10,2013-05-16 12:47:00,
2013-05-16 09:02:00,58.2,55.0,29.77,SSW,195,0.0,-999.0,88,-99.99,,,0.00,weatherlink.com 1.10,2013-05-16 13:02:00,
2013-05-16 09:17:00,60.6,54.0,29.77,South,170,0.0,-999.0,80,-99.99,,,0.00,weatherlink.com 1.10,2013-05-16 13:17:00,
2013-05-16 09:32:00,63.0,54.0,29.77,SW,216,0.0,-999.0,72,-99.99,,,0.00,weatherlink.com 1.10,2013-05-16 13:32:00,
2013-05-16 09:47:00,65.3,50.0,29.77,East,101,1.0,-999.0,58,-99.99,,,0.00,weatherlink.com 1.10,2013-05-16 13:47:00,
2013-05-16 10:02:00,67.1,47.0,29.77,East,84,2.0,-999.0,49,-99.99,,,0.00,weatherlink.com 1.10,2013-05-16 14:02:00,
2013-05-16 10:17:00,68.9,46.0,29.77,ESE,112,0.0,-999.0,44,-99.99,,,0.00,weatherlink.com 1.10,2013-05-16 14:17:00,
2013-05-16 10:32:00,70.0,44.0,29.76,ESE,115,1.0,-999.0,40,-99.99,,,0.00,weatherlink.com 1.10,2013-05-16 14:32:00,
2013-05-16 10:47:00,70.6,45.0,29.76,North,360,1.0,-999.0,40,-99.99,,,0.00,weatherlink.com 1.10,2013-05-16 14:47:00,
2013-05-16 11:02:00,71.8,45.0,29.75,WNW,283,0.0,-999.0,39,-99.99,,,0.00,weatherlink.com 1.10,2013-05-16 15:02:00,
2013-05-16 11:17:00,73.5,43.0,29.75,SW,225,1.0,-999.0,34,-99.99,,,0.00,weatherlink.com 1.10,2013-05-16 15:17:00,
2013-05-16 11:32:00,74.0,47.0,29.75,WSW,242,5.0,-999.0,38,-99.99,,,0.00,weatherlink.com 1.10,2013-05-16 15:32:00,
2013-05-16 11:47:00,75.4,47.0,29.75,North,5,4.0,-999.0,36,-99.99,,,0.00,weatherlink.com 1.10,2013-05-16 15:47:00,
2013-05-16 12:02:00,76.5,47.0,29.75,South,178,0.0,-999.0,35,-99.99,,,0.00,weatherlink.com 1.10,2013-05-16 16:02:00,
2013-05-16 12:17:00,77.2,47.0,29.73,ESE,111,1.0,-999.0,34,-99.99,,,0.00,weatherlink.com 1.10,2013-05-16 16:17:00,
2013-05-16 12:32:00,78.0,46.0,29.73,West,277,1.0,-999.0,32,-99.99,,,0.00,weatherlink.com 1.10,2013-05-16 16:32:00,
2013-05-16 12:47:00,78.2,47.0,29.73,WSW,246,1.0,-999.0,33,-99.99,,,0.00,weatherlink.com 1.10,2013-05-16 16:47:00,
2013-05-16 13:02:00,79.2,47.0,29.72,SSE,148,0.0,-999.0,32,-99.99,,,0.00,weatherlink.com 1.10,2013-05-16 17:02:00,
2013-05-16 13:17:00,79.8,49.0,29.72,ENE,74,1.0,-999.0,34,-99.99,,,0.00,weatherlink.com 1.10,2013-05-16 17:17:00,
2013-05-16 13:32:00,80.7,49.0,29.71,WSW,240,5.0,-999.0,33,-99.99,,,0.00,weatherlink.com 1.10,2013-05-16 17:32:00,
2013-05-16 13:47:00,80.8,48.0,29.71,WSW,246,0.0,-999.0,32,-99.99,,,0.00,weatherlink.com 1.10,2013-05-16 17:47:00,
2013-05-16 14:02:00,80.6,48.0,29.71,SW,232,3.0,-999.0,32,-99.99,,,0.00,weatherlink.com 1.10,2013-05-16 18:02:00,
2013-05-16 14:17:00,80.5,46.0,29.71,NNE,18,0.0,-999.0,30,-99.99,,,0.00,weatherlink.com 1.10,2013-05-16 18:17:00,
2013-05-16 14:32:00,81.6,46.0,29.70,East,98,5.0,-999.0,29,-99.99,,,0.00,weatherlink.com 1.10,2013-05-16 18:32:00,
2013-05-16 14:47:00,81.3,46.0,29.70,ENE,61,0.0,-999.0,29,-99.99,,,0.00,weatherlink.com 1.10,2013-05-16 18:47:00,
2013-05-16 15:02:00,81.6,47.0,29.70,NNE,29,0.0,-999.0,30,-99.99,,,0.00,weatherlink.com 1.10,2013-05-16 19:02:00,
2013-05-16 15:17:00,81.3,48.0,29.70,NNE,23,1.0,-999.0,31,-99.99,,,0.00,weatherlink.com 1.10,2013-05-16 19:17:00,
2013-05-16 15:32:00,81.0,48.0,29.70,NE,52,5.0,-999.0,31,-99.99,,,0.00,weatherlink.com 1.10,2013-05-16 19:32:00,
2013-05-16 15:47:00,81.4,47.0,29.69,ESE,109,3.0,-999.0,30,-99.99,,,0.00,weatherlink.com 1.10,2013-05-16 19:47:00,
2013-05-16 16:02:00,81.9,49.0,29.69,SW,230,0.0,-999.0,32,-99.99,,,0.00,weatherlink.com 1.10,2013-05-16 20:02:00,
2013-05-16 16:17:00,82.1,46.0,29.69,WSW,257,1.0,-999.0,28,-99.99,,,0.00,weatherlink.com 1.10,2013-05-16 20:17:00,
2013-05-16 16:32:00,81.2,46.0,29.69,SSE,156,1.0,-999.0,29,-99.99,,,0.00,weatherlink.com 1.10,2013-05-16 20:32:00,
2013-05-16 16:47:00,82.0,45.0,29.69,East,88,1.0,-999.0,27,-99.99,,,0.00,weatherlink.com 1.10,2013-05-16 20:47:00,
2013-05-16 17:02:00,80.9,45.0,29.69,NNW,327,3.0,-999.0,28,-99.99,,,0.00,weatherlink.com 1.10,2013-05-16 21:02:00,
2013-05-16 17:17:00,81.0,44.0,29.69,SW,215,0.0,-999.0,27,-99.99,,,0.00,weatherlink.com 1.10,2013-05-16 21:17:00,
2013-05-16 17:32:00,80.0,43.0,29.69,ESE,120,0.0,-999.0,27,-99.99,,,0.00,weatherlink.com 1.10,2013-05-16 21:32:00,
2013-05-16 17:47:00,79.2,43.0,29.68,SSE,152,0.0,-999.0,28,-99.99,,,0.00,weatherlink.com 1.10,2013-05-16 21:47:00,
2013-05-16 18:02:00,79.1,47.0,29.68,SE,131,0.0,-999.0,32,-99.99,,,0.00,weatherlink.com 1.10,2013-05-16 22:02:00,
2013-05-16 18:17:00,78.8,45.0,29.69,SE,134,0.0,-999.0,30,-99.99,,,0.00,weatherlink.com 1.10,2013-05-16 22:17:00,
2013-05-16 18:32:00,78.3,45.0,29.69,NNW,331,0.0,-999.0,31,-99.99,,,0.00,weatherlink.com 1.10,2013-05-16 22:32:00,
2013-05-16 18:47:00,77.8,43.0,29.70,SW,227,0.0,-999.0,29,-99.99,,,0.00,weatherlink.com 1.10,2013-05-16 22:47:00,
2013-05-16 19:02:00,77.5,45.0,29.70,WSW,256,0.0,-999.0,31,-99.99,,,0.00,weatherlink.com 1.10,2013-05-16 23:02:00,
2013-05-16 19:17:00,76.6,44.0,29.71,WSW,256,0.0,-999.0,31,-99.99,,,0.00,weatherlink.com 1.10,2013-05-16 23:17:00,
2013-05-16 19:32:00,75.5,46.0,29.71,WSW,253,0.0,-999.0,35,-99.99,,,0.00,weatherlink.com 1.10,2013-05-16 23:32:00,
2013-05-16 19:47:00,74.0,46.0,29.72,WSW,253,0.0,-999.0,37,-99.99,,,0.00,weatherlink.com 1.10,2013-05-16 23:47:00,
2013-05-16 20:02:00,72.3,47.0,29.72,WSW,253,0.0,-999.0,40,-99.99,,,0.00,weatherlink.com 1.10,2013-05-17 00:02:00,
2013-05-16 20:17:00,70.6,48.0,29.73,WSW,253,0.0,-999.0,45,-99.99,,,0.00,weatherlink.com 1.10,2013-05-17 00:17:00,
2013-05-16 20:32:00,68.8,48.0,29.73,WSW,253,0.0,-999.0,47,-99.99,,,0.00,weatherlink.com 1.10,2013-05-17 00:32:00,
2013-05-16 20:47:00,67.4,48.0,29.74,WSW,253,0.0,-999.0,51,-99.99,,,0.00,weatherlink.com 1.10,2013-05-17 00:47:00,
2013-05-16 21:02:00,66.0,48.0,29.75,WSW,253,0.0,-999.0,53,-99.99,,,0.00,weatherlink.com 1.10,2013-05-17 01:02:00,
2013-05-16 21:17:00,64.9,49.0,29.75,SSW,192,0.0,-999.0,56,-99.99,,,0.00,weatherlink.com 1.10,2013-05-17 01:17:00,
2013-05-16 21:32:00,64.3,49.0,29.76,SSW,192,0.0,-999.0,59,-99.99,,,0.00,weatherlink.com 1.10,2013-05-17 01:32:00,
2013-05-16 21:47:00,63.0,50.0,29.77,SSW,192,0.0,-999.0,63,-99.99,,,0.00,weatherlink.com 1.10,2013-05-17 01:47:00,
2013-05-16 22:02:00,61.2,50.0,29.78,SSW,192,0.0,-999.0,66,-99.99,,,0.00,weatherlink.com 1.10,2013-05-17 02:02:00,
2013-05-16 22:17:00,60.2,50.0,29.78,SSW,192,0.0,-999.0,69,-99.99,,,0.00,weatherlink.com 1.10,2013-05-17 02:17:00,
2013-05-16 22:32:00,59.5,49.0,29.78,SSW,192,0.0,-999.0,68,-99.99,,,0.00,weatherlink.com 1.10,2013-05-17 02:32:00,
2013-05-16 22:47:00,59.3,48.0,29.79,SSW,192,0.0,-999.0,67,-99.99,,,0.00,weatherlink.com 1.10,2013-05-17 02:47:00,
2013-05-16 23:02:00,58.7,49.0,29.79,SSW,192,0.0,-999.0,71,-99.99,,,0.00,weatherlink.com 1.10,2013-05-17 03:02:00,
2013-05-16 23:17:00,57.7,49.0,29.79,SSW,192,0.0,-999.0,72,-99.99,,,0.00,weatherlink.com 1.10,2013-05-17 03:17:00,
2013-05-16 23:32:00,56.9,48.0,29.79,SSW,192,0.0,-999.0,73,-99.99,,,0.00,weatherlink.com 1.10,2013-05-17 03:32:00,
2013-05-16 23:47:00,56.6,48.0,29.80,SSW,192,0.0,-999.0,73,-99.99,,,0.00,weatherlink.com 1.10,2013-05-17 03:47:00,